• In Switzerland
  • List of Countries
  • For 7 days
  • Water Temperature
  • Satellite Maps
  • Weather Map
  • Weather Widgets
  • user-avatar
    Login

    Hourly Weather Maan

    Today, 18 October, Thursday

    Time Temperature Precipitation Wind Pressure Humidity
    00:00 +16°C° 0 mm 3 mps 636 mmHg 74%
    01:00 +16°C° 0 mm 2 mps 636 mmHg 77%
    02:00 +15°C° 0 mm 2 mps 635 mmHg 79%
    03:00 +15°C° 0.1 mm 2 mps 635 mmHg 80%
    04:00 +15°C° 0.1 mm 1 mps 635 mmHg 81%
    05:00 +14°C° 0.1 mm 1 mps 635 mmHg 83%
    06:00 +15°C° 0 mm 1 mps 636 mmHg 78%
    07:00 +16°C° 0 mm 2 mps 636 mmHg 74%
    08:00 +16°C° 0 mm 2 mps 636 mmHg 69%
    09:00 +17°C° 0 mm 2 mps 636 mmHg 62%
    10:00 +19°C° 0 mm 2 mps 637 mmHg 55%
    11:00 +20°C° 0 mm 2 mps 637 mmHg 48%
    12:00 +20°C° 0 mm 2 mps 637 mmHg 45%
    13:00 +21°C° 0 mm 2 mps 637 mmHg 42%
    14:00 +23°C° 0 mm 2 mps 637 mmHg 39%
    15:00 +21°C° 0 mm 2 mps 637 mmHg 40%
    16:00 +21°C° 0 mm 3 mps 636 mmHg 42%
    17:00 +21°C° 0 mm 3 mps 636 mmHg 43%
    18:00 +20°C° 0 mm 3 mps 636 mmHg 46%
    19:00 +19°C° 0 mm 3 mps 636 mmHg 50%
    20:00 +19°C° 0 mm 4 mps 637 mmHg 53%
    21:00 +18°C° 0 mm 3 mps 636 mmHg 57%
    22:00 +17°C° 0 mm 3 mps 636 mmHg 62%
    23:00 +17°C° 0 mm 3 mps 636 mmHg 66%

    Tomorrow, 19 October, Friday

    Time Temperature Precipitation Wind Pressure Humidity
    00:00 +16°C° 0 mm 2 mps 636 mmHg 69%
    01:00 +16°C° 0 mm 2 mps 636 mmHg 72%
    02:00 +15°C° 0 mm 2 mps 636 mmHg 76%
    03:00 +15°C° 0 mm 2 mps 636 mmHg 78%
    04:00 +15°C° 0 mm 1 mps 636 mmHg 80%
    05:00 +14°C° 0 mm 1 mps 636 mmHg 82%
    06:00 +15°C° 0 mm 1 mps 636 mmHg 76%
    07:00 +16°C° 0 mm 1 mps 637 mmHg 71%
    08:00 +16°C° 0 mm 1 mps 637 mmHg 66%
    09:00 +19°C° 0 mm 1 mps 637 mmHg 59%
    10:00 +20°C° 0 mm 1 mps 638 mmHg 52%
    11:00 +21°C° 0 mm 1 mps 638 mmHg 46%
    12:00 +22°C° 0 mm 1 mps 638 mmHg 43%
    13:00 +21°C° 0 mm 2 mps 638 mmHg 41%
    14:00 +23°C° 0 mm 2 mps 638 mmHg 38%
    15:00 +23°C° 0 mm 2 mps 638 mmHg 40%
    16:00 +21°C° 0 mm 2 mps 637 mmHg 42%
    17:00 +21°C° 0 mm 3 mps 637 mmHg 44%
    18:00 +20°C° 0 mm 3 mps 637 mmHg 47%
    19:00 +19°C° 0 mm 3 mps 637 mmHg 51%
    20:00 +19°C° 0 mm 3 mps 638 mmHg 54%
    21:00 +18°C° 0 mm 2 mps 637 mmHg 56%
    22:00 +17°C° 0 mm 2 mps 637 mmHg 58%
    23:00 +17°C° 0 mm 2 mps 637 mmHg 60%

    Day after tomorrow, 20 October, Saturday

    Time Temperature Precipitation Wind Pressure Humidity
    00:00 +16°C° 0 mm 1 mps 637 mmHg 61%
    01:00 +16°C° 0 mm 1 mps 637 mmHg 62%
    02:00 +16°C° 0 mm 1 mps 636 mmHg 63%
    03:00 +15°C° 0 mm 1 mps 636 mmHg 64%
    04:00 +15°C° 0 mm 1 mps 636 mmHg 65%
    05:00 +14°C° 0 mm 1 mps 636 mmHg 66%
    06:00 +15°C° 0 mm 1 mps 636 mmHg 61%
    07:00 +16°C° 0 mm 1 mps 637 mmHg 57%
    08:00 +18°C° 0 mm 1 mps 638 mmHg 52%
    09:00 +19°C° 0 mm 1 mps 638 mmHg 46%
    10:00 +20°C° 0 mm 1 mps 638 mmHg 41%
    11:00 +20°C° 0 mm 2 mps 638 mmHg 35%
    12:00 +21°C° 0 mm 2 mps 638 mmHg 32%
    13:00 +21°C° 0 mm 3 mps 638 mmHg 29%
    14:00 +22°C° 0 mm 4 mps 638 mmHg 26%
    15:00 +21°C° 0 mm 3 mps 638 mmHg 28%
    16:00 +21°C° 0 mm 3 mps 637 mmHg 29%
    17:00 +20°C° 0 mm 3 mps 637 mmHg 31%
    18:00 +19°C° 0 mm 3 mps 637 mmHg 33%
    19:00 +19°C° 0 mm 3 mps 637 mmHg 35%
    20:00 +18°C° 0 mm 2 mps 637 mmHg 37%
    21:00 +17°C° 0 mm 2 mps 637 mmHg 39%
    22:00 +18°C° 0 mm 1 mps 637 mmHg 40%
    23:00 +16°C° 0 mm 1 mps 637 mmHg 41%

    21 October, Sunday

    Time Temperature Precipitation Wind Pressure Humidity
    00:00 +16°C° 0 mm 1 mps 637 mmHg 42%
    01:00 +15°C° 0 mm 1 mps 636 mmHg 42%
    02:00 +15°C° 0 mm 1 mps 636 mmHg 42%
    03:00 +15°C° 0 mm 1 mps 636 mmHg 43%
    04:00 +14°C° 0 mm 1 mps 636 mmHg 43%
    05:00 +14°C° 0 mm 1 mps 636 mmHg 44%
    06:00 +15°C° 0 mm 1 mps 636 mmHg 40%
    07:00 +15°C° 0 mm 0 mps 637 mmHg 36%
    08:00 +17°C° 0 mm 0 mps 638 mmHg 33%
    09:00 +20°C° 0 mm 1 mps 638 mmHg 29%
    10:00 +21°C° 0 mm 1 mps 638 mmHg 26%
    11:00 +23°C° 0 mm 2 mps 639 mmHg 23%
    12:00 +23°C° 0 mm 2 mps 638 mmHg 22%
    13:00 +24°C° 0 mm 2 mps 638 mmHg 21%
    14:00 +25°C° 0 mm 3 mps 638 mmHg 19%
    15:00 +24°C° 0 mm 2 mps 638 mmHg 20%
    16:00 +23°C° 0 mm 2 mps 638 mmHg 21%
    17:00 +23°C° 0 mm 2 mps 637 mmHg 22%
    18:00 +21°C° 0 mm 2 mps 637 mmHg 24%
    19:00 +21°C° 0 mm 1 mps 637 mmHg 26%
    20:00 +21°C° 0 mm 1 mps 637 mmHg 27%
    21:00 +20°C° 0 mm 1 mps 637 mmHg 28%
    22:00 +20°C° 0 mm 1 mps 636 mmHg 28%
    23:00 +19°C° 0 mm 1 mps 636 mmHg 29%

    22 October, Monday

    Time Temperature Precipitation Wind Pressure Humidity
    00:00 +19°C° 0 mm 1 mps 636 mmHg 29%
    01:00 +19°C° 0 mm 1 mps 636 mmHg 29%
    02:00 +18°C° 0 mm 2 mps 635 mmHg 29%
    03:00 +17°C° 0 mm 2 mps 635 mmHg 29%
    04:00 +17°C° 0 mm 2 mps 635 mmHg 29%
    05:00 +17°C° 0 mm 2 mps 635 mmHg 30%
    06:00 +18°C° 0 mm 2 mps 636 mmHg 27%
    07:00 +20°C° 0 mm 3 mps 637 mmHg 25%
    08:00 +21°C° 0 mm 3 mps 637 mmHg 22%
    09:00 +23°C° 0 mm 4 mps 638 mmHg 20%
    10:00 +25°C° 0 mm 5 mps 638 mmHg 18%
    11:00 +27°C° 0 mm 6 mps 638 mmHg 15%
    12:00 +27°C° 0 mm 6 mps 638 mmHg 15%
    13:00 +28°C° 0 mm 7 mps 638 mmHg 15%
    14:00 +28°C° 0 mm 7 mps 637 mmHg 14%
    15:00 +27°C° 0 mm 7 mps 637 mmHg 16%
    16:00 +26°C° 0 mm 6 mps 637 mmHg 17%
    17:00 +25°C° 0 mm 5 mps 637 mmHg 19%
    18:00 +23°C° 0 mm 4 mps 637 mmHg 22%
    19:00 +22°C° 0 mm 3 mps 637 mmHg 25%
    20:00 +21°C° 0 mm 2 mps 637 mmHg 28%
    21:00 +20°C° 0 mm 2 mps 637 mmHg 32%
    22:00 +20°C° 0 mm 2 mps 636 mmHg 35%
    23:00 +19°C° 0 mm 2 mps 636 mmHg 38%

    23 October, Tuesday

    Time Temperature Precipitation Wind Pressure Humidity
    00:00 +18°C° 0 mm 2 mps 636 mmHg 41%
    01:00 +19°C° 0 mm 1 mps 636 mmHg 44%
    02:00 +18°C° 0 mm 1 mps 635 mmHg 46%
    03:00 +18°C° 0 mm 1 mps 636 mmHg 48%
    04:00 +18°C° 0 mm 1 mps 636 mmHg 50%
    05:00 +16°C° 0 mm 1 mps 636 mmHg 51%
    06:00 +18°C° 0 mm 1 mps 636 mmHg 49%
    07:00 +19°C° 0 mm 1 mps 637 mmHg 46%
    08:00 +19°C° 0 mm 1 mps 637 mmHg 44%
    09:00 +20°C° 0 mm 1 mps 637 mmHg 40%
    10:00 +21°C° 0 mm 1 mps 637 mmHg 36%
    11:00 +21°C° 0 mm 2 mps 637 mmHg 32%
    12:00 +21°C° 0 mm 3 mps 637 mmHg 31%
    13:00 +22°C° 0 mm 4 mps 637 mmHg 30%
    14:00 +23°C° 0 mm 5 mps 637 mmHg 29%
    15:00 +22°C° 0.2 mm 4 mps 637 mmHg 32%
    16:00 +22°C° 0.2 mm 4 mps 637 mmHg 35%
    17:00 +21°C° 0.2 mm 4 mps 636 mmHg 38%
    18:00 +20°C° 0.4 mm 3 mps 636 mmHg 43%
    19:00 +19°C° 0.4 mm 3 mps 636 mmHg 47%
    20:00 +19°C° 0.4 mm 2 mps 636 mmHg 52%
    21:00 +18°C° 0.6 mm 2 mps 636 mmHg 55%
    22:00 +18°C° 0.6 mm 2 mps 636 mmHg 59%
    23:00 +17°C° 0.6 mm 2 mps 636 mmHg 62%
    Show more